Wind_Speed
18 29 29 31 35 15 13 16 13 13 8 4 6 5 7 5 4 6 7 4 3 7 9 4 4 15 11 24 22 19 18 19 19 18 18 17 17 14 14 16 14 13 13 14 14 15 16 12 13
26 18 29 34 29 10 17 14 13 13 11 5 5 5 7 6 6 6 5 5 6 5 10 7 12 16 7 16 26 20 19 20 20 18 16 15 14 14 14 14 13 12 10 12 12 12 13 12 11
23 23 27 33 1 13 9 12 14 12 11 9 7 5 5 6 7 6 4 4 6 3 7 19 7 12 5 16 18 21 20 20 20 18 17 16 14 13 11 12 12 11 10 9 10 10 10 9 10
31 33 31 10 13 13 14 11 13 13 9 10 7 8 6 6 7 6 4 4 5 6 17 10 9 6 9 20 17 21 21 20 20 19 18 17 15 11 11 10 10 10 9 7 8 8 7 6 8
31 38 32 14 20 12 18 9 11 11 12 8 10 9 9 8 8 7 5 4 5 6 7 10 11 14 14 24 22 21 21 21 21 19 18 15 14 11 10 10 8 8 7 5 5 7 5 2 5
34 31 25 16 14 10 21 12 9 8 10 12 10 9 9 8 8 7 3 3 3 8 8 4 13 10 14 19 18 14 23 21 21 19 16 14 13 12 9 8 8 7 7 4 4 5 4 1 1
23 10 27 17 17 9 8 10 10 12 10 11 11 10 8 7 7 4 1 2 2 4 9 4 16 14 14 13 15 13 23 24 22 19 17 16 14 12 11 9 9 8 7 5 3 3 3 2 2
31 25 23 8 7 8 8 13 16 16 11 10 9 13 11 9 7 5 3 3 2 1 7 7 3 4 4 12 20 6 4 20 27 22 19 13 14 12 11 10 9 9 8 7 5 4 4 4 4
23 13 6 8 14 8 10 12 17 16 15 14 14 13 10 10 8 7 5 4 3 4 8 4 3 4 6 8 4 9 9 6 16 26 23 16 12 11 9 11 10 10 9 9 8 9 9 8 7
22 4 6 3 12 4 10 4 11 13 14 15 16 12 12 10 10 8 7 6 3 4 7 7 6 6 3 2 5 5 3 12 15 17 14 16 13 11 14 14 11 9 9 10 11 12 12 12 10
4 8 2 3 13 2 5 3 7 9 10 13 14 16 15 14 13 13 13 13 13 12 5 7 1 3 4 7 6 10 8 4 2 2 8 19 17 17 20 18 22 11 11 13 13 15 16 15 14
7 1 5 5 16 8 4 7 3 8 7 11 12 14 14 14 14 15 16 16 17 17 15 9 6 6 4 3 5 7 10 9 7 6 2 8 13 18 24 22 16 15 15 16 16 18 17 18 17
6 0 5 4 10 2 7 5 7 5 7 10 10 12 14 15 16 15 15 13 16 18 18 14 7 7 3 7 9 9 9 6 7 5 2 1 5 11 24 18 11 17 19 18 18 18 19 20 19
11 4 6 3 6 8 4 5 11 10 9 9 10 11 13 15 15 15 15 17 17 16 20 21 16 8 8 16 9 8 8 4 4 5 4 5 3 5 3 10 14 19 23 24 22 21 22 21 21
13 10 6 3 12 5 6 6 11 13 9 7 8 10 12 13 15 16 16 17 17 17 17 20 17 13 10 11 10 11 10 9 10 9 8 6 6 6 5 10 12 15 18 20 22 26 27 31 33
18 12 5 3 2 4 6 6 15 12 9 7 7 9 11 11 13 12 13 14 14 15 15 15 15 14 12 12 12 11 10 10 10 10 9 8 7 6 6 6 5 6 9 11 13 9 15 15 26
7 7 13 3 7 6 5 10 17 15 7 10 9 9 9 9 11 12 12 11 10 11 12 11 9 9 9 10 10 10 9 8 7 6 4 3 3 5 5 6 6 8 10 11 11 12 13 15 9
3 2 9 7 9 4 14 11 25 17 6 10 11 11 11 10 10 12 12 11 9 8 9 10 10 8 7 6 6 6 6 6 4 3 3 3 4 4 6 7 8 9 11 13 14 15 14 13 14
15 5 10 7 5 9 13 17 29 19 8 9 12 15 17 14 12 11 12 11 9 7 8 7 9 9 9 8 8 8 7 6 5 5 6 7 11 11 9 12 13 15 13 15 13 14 15 16 16
21 14 11 9 7 17 13 19 26 11 11 13 7 8 11 14 15 13 11 10 10 9 7 7 6 6 6 6 5 6 6 6 7 9 7 16 13 11 9 15 18 18 18 19 19 19 15 15 18
12 12 8 10 12 15 10 15 24 24 11 19 18 6 6 8 11 13 13 11 10 10 9 8 7 7 7 7 8 8 9 11 16 12 15 12 8 21 15 16 19 21 23 22 27 30 23 25 22
7 7 10 14 12 7 8 11 25 28 27 19 25 18 10 7 9 9 11 14 13 10 9 10 10 10 10 10 11 11 12 15 15 16 13 16 16 15 16 18 20 21 22 24 25 28 27 27 26
11 12 18 16 16 10 16 6 24 25 25 17 16 25 22 13 9 10 8 11 13 13 11 11 11 11 12 13 14 13 13 16 19 17 16 19 22 24 23 24 23 24 26 27 29 30 30 31 30
14 18 20 10 9 13 11 11 13 20 19 17 15 19 24 26 17 9 10 11 12 13 14 14 14 14 13 13 14 15 16 20 23 27 28 27 27 24 23 24 26 29 31 31 32 32 33 33 35
16 12 3 1 5 9 13 12 11 7 13 7 14 20 26 26 22 15 16 16 13 13 15 16 16 18 19 21 22 23 23 24 25 27 29 30 32 34 35 35 35 36 37 39 38 39 40 42 44
15 14 12 1 6 8 16 14 20 26 25 27 25 23 27 25 31 27 17 14 17 17 18 19 18 17 19 20 21 23 24 25 26 27 29 29 29 33 33 34 37 38 40 41 43 44 45 45 44
16 19 19 14 11 12 16 11 20 26 33 32 23 20 27 32 27 35 40 25 19 19 17 17 18 19 21 23 24 23 24 24 25 26 25 28 29 31 34 35 37 39 40 42 43 45 47 51 53
19 11 18 14 12 15 15 24 23 28 29 24 20 19 21 28 35 35 42 39 28 26 23 21 18 19 22 24 23 23 25 26 27 29 32 34 37 38 38 40 43 44 46 47 50 51 52 54 55
22 23 21 13 10 11 15 22 24 31 34 25 24 21 21 21 31 36 36 45 37 36 29 24 27 24 30 31 29 29 27 29 30 32 35 39 42 43 46 48 49 51 52 54 57 59 61 63 63
23 25 19 20 25 20 18 18 27 29 30 28 29 29 20 21 25 27 37 43 52 28 19 22 36 27 40 42 39 27 38 38 40 42 39 43 47 47 50 53 54 56 59 62 62 60 59 60 61
Wind_Direction
80 77 68 64 58 35 50 45 36 33 41 105 104 128 101 97 119 145 140 153 137 123 131 225 214 143 130 155 153 154 157 160 164 158 150 147 142 143 135 132 134 133 126 122 115 108 98 90 76
81 82 68 60 60 16 43 43 40 44 42 76 91 85 105 117 120 121 153 151 157 140 162 163 197 157 108 165 159 166 166 167 168 163 158 153 147 151 141 134 137 138 133 125 118 112 104 93 79
92 84 67 59 338 68 56 50 50 45 41 43 49 58 79 104 103 118 128 152 161 159 163 158 169 193 203 177 193 171 172 174 173 170 169 161 158 157 148 135 138 138 133 130 123 116 106 98 86
94 81 76 54 50 31 52 62 58 55 51 49 55 63 59 80 102 125 138 163 180 193 167 168 177 197 223 204 199 171 176 177 178 177 175 165 163 166 163 149 143 136 137 138 133 119 115 102 87
90 87 78 42 39 39 33 55 69 61 62 71 61 64 77 73 86 116 141 199 199 202 155 169 185 198 208 184 192 177 179 177 178 181 179 175 166 181 176 166 161 146 138 148 145 125 116 122 90
60 69 94 71 55 25 58 5 31 63 67 69 72 78 74 78 77 98 139 192 241 214 216 156 228 211 201 221 206 195 182 183 182 181 184 184 187 196 185 185 192 172 160 176 173 154 127 236 34
45 71 69 82 11 68 34 1 51 49 58 79 72 81 84 87 86 83 165 101 209 181 199 186 199 211 239 206 270 198 191 184 183 184 186 194 201 197 196 201 205 212 203 200 204 192 156 231 273
76 4 46 73 17 69 354 10 42 54 54 55 71 72 76 78 79 70 62 38 78 281 200 320 331 276 229 317 252 215 205 207 190 186 193 203 215 208 207 222 219 221 226 233 239 247 242 243 263
69 56 214 50 51 15 359 37 42 46 56 65 61 64 65 73 73 80 57 29 7 322 309 317 4 334 310 2 67 252 251 232 210 191 196 187 221 219 211 222 234 235 235 244 249 254 256 256 261
23 5 19 76 111 11 356 31 26 44 45 60 76 60 78 77 68 63 61 45 16 306 294 297 287 309 344 334 74 83 196 262 204 202 199 204 211 225 230 219 220 243 252 252 254 259 260 266 263
119 110 25 60 110 0 7 356 300 44 52 58 56 66 53 62 75 71 63 54 48 45 14 345 2 63 23 89 73 77 104 81 109 61 249 212 216 226 232 237 216 235 265 265 266 258 256 254 261
46 79 71 69 103 217 54 338 29 21 38 59 58 58 58 60 63 65 63 55 51 50 45 40 45 47 64 139 58 84 103 124 142 133 155 246 251 240 241 245 244 226 264 264 264 267 264 262 256
114 73 74 112 118 206 191 330 24 347 36 49 52 53 60 49 57 59 62 63 58 52 51 50 68 45 41 109 127 131 148 135 154 142 105 3 301 289 251 242 276 238 257 262 262 258 263 261 261
199 154 112 39 65 122 307 56 9 6 6 36 41 46 43 63 51 49 47 55 55 52 51 51 56 50 43 53 64 68 74 73 61 62 57 31 10 29 34 276 277 261 266 268 268 263 258 257 264
140 92 105 59 67 117 231 77 14 354 354 24 30 34 45 42 42 41 43 47 47 45 48 55 56 49 46 47 51 48 48 57 62 55 51 39 24 9 312 298 298 296 294 291 286 270 267 258 247
80 101 177 175 90 321 314 322 356 353 355 28 31 27 28 47 48 46 38 38 44 53 54 55 59 64 57 53 54 56 57 52 48 43 37 35 33 32 27 21 16 11 12 6 18 329 295 293 258
40 129 199 227 150 312 8 300 353 348 4 38 35 40 38 36 46 48 47 45 41 45 55 62 64 60 59 58 54 55 58 60 63 67 69 31 359 2 353 351 356 348 343 344 351 355 350 345 348
354 215 209 261 189 108 263 269 311 330 33 48 53 53 55 54 45 41 45 47 43 43 45 51 55 57 48 38 31 22 14 13 17 21 352 316 308 298 305 314 308 321 328 332 332 331 330 330 328
170 153 229 237 218 125 276 277 306 346 27 56 55 50 52 58 56 47 42 38 37 37 43 41 41 44 39 32 28 25 12 5 345 319 296 298 290 300 304 305 308 298 316 324 325 313 306 306 309
161 164 214 218 247 135 243 282 299 348 334 355 3 16 27 31 41 45 37 29 23 21 26 37 43 37 31 31 29 16 347 320 312 334 343 337 311 307 312 323 310 315 315 327 306 279 295 299 299
177 148 214 238 274 155 195 257 269 294 325 303 329 317 341 16 16 10 12 16 13 8 3 2 1 357 359 359 360 353 334 327 304 358 324 333 304 310 317 319 310 313 311 312 307 313 316 319 312
175 177 204 242 241 238 291 243 261 282 311 314 333 335 347 332 342 348 347 351 349 354 349 339 330 332 333 335 337 338 332 325 329 338 337 323 317 322 321 310 305 308 308 307 303 306 306 304 304
148 192 231 223 219 225 225 250 267 273 295 299 303 327 331 343 335 317 319 333 340 333 327 325 319 314 315 323 325 324 321 315 320 329 328 326 323 319 320 313 309 306 307 306 305 305 305 302 301
198 233 230 231 224 234 224 247 256 267 285 267 272 308 312 316 321 306 291 310 314 317 319 317 320 321 324 328 324 321 322 328 330 330 328 325 320 314 309 307 307 306 306 305 304 301 300 300 303
209 210 201 209 238 240 241 237 263 276 224 226 278 284 289 292 301 298 299 304 305 307 310 311 316 323 325 324 323 324 327 327 325 322 319 318 319 318 317 315 313 312 310 308 307 304 303 302 302
209 195 164 205 282 273 239 216 221 244 246 253 261 263 281 284 272 295 291 283 289 295 300 302 307 312 310 307 308 313 317 315 313 313 311 310 308 305 304 304 305 303 300 299 298 297 295 295 294
213 206 167 248 252 230 262 242 253 255 254 266 266 244 247 277 280 263 294 297 289 291 287 288 296 296 294 295 299 304 304 303 306 307 303 299 300 298 298 298 296 295 293 291 290 290 291 293 293
207 251 205 223 217 227 243 260 267 274 285 266 283 265 244 246 271 276 284 295 304 285 286 292 293 291 290 290 295 301 303 307 306 307 306 308 307 306 304 301 299 296 293 292 291 289 287 286 286
214 213 212 208 193 227 253 231 233 255 273 285 292 273 268 259 255 272 281 285 293 281 266 291 299 305 305 302 303 303 303 306 303 305 304 308 309 309 306 303 300 298 297 296 295 294 293 292 290
211 226 217 208 221 213 219 273 253 252 261 275 282 279 276 271 265 256 265 273 260 234 265 314 303 334 308 297 288 306 287 306 304 310 305 308 305 307 305 302 301 299 299 300 299 297 295 294 292
Height
5909 5907 5907 5904 5900 5910 5905 5902 5901 5899 5898 5897 5897 5898 5901 5899 5900 5903 5900 5899 5900 5903 5904 5903 5905 5905 5906 5908 5911 5913 5914 5915 5917 5919 5918 5919 5919 5922 5922 5923 5924 5925 5925 5925 5925 5925 5926 5928 5929
5912 5914 5909 5906 5910 5913 5909 5905 5903 5901 5901 5900 5900 5900 5901 5901 5901 5901 5902 5903 5903 5903 5905 5905 5904 5900 5906 5909 5911 5912 5914 5916 5918 5918 5921 5923 5923 5924 5924 5925 5927 5927 5928 5928 5928 5928 5928 5930 5931
5916 5914 5912 5909 5916 5915 5912 5908 5906 5904 5902 5902 5902 5902 5902 5902 5903 5902 5903 5904 5904 5904 5904 5902 5905 5908 5907 5909 5911 5912 5915 5917 5918 5919 5921 5923 5925 5927 5928 5928 5928 5929 5931 5931 5931 5931 5932 5933 5932
5916 5913 5914 5923 5919 5916 5914 5911 5909 5907 5905 5904 5904 5904 5904 5904 5905 5905 5905 5905 5905 5905 5900 5905 5906 5906 5907 5909 5909 5912 5915 5917 5919 5920 5922 5923 5926 5929 5930 5931 5931 5932 5933 5934 5933 5933 5935 5937 5935
5915 5912 5918 5925 5922 5919 5915 5914 5912 5910 5908 5907 5906 5906 5905 5905 5906 5906 5906 5906 5907 5906 5907 5907 5909 5910 5909 5909 5909 5912 5915 5917 5919 5921 5924 5926 5927 5929 5932 5932 5934 5935 5936 5936 5936 5935 5937 5940 5938
5911 5919 5925 5929 5928 5922 5920 5917 5915 5912 5911 5909 5909 5908 5908 5907 5907 5906 5906 5906 5907 5907 5907 5908 5908 5908 5910 5911 5911 5911 5914 5917 5920 5923 5926 5928 5929 5931 5933 5934 5936 5937 5937 5938 5938 5937 5937 5941 5940
5912 5903 5929 5931 5929 5928 5924 5920 5918 5914 5912 5912 5911 5910 5910 5909 5908 5908 5907 5907 5907 5907 5909 5910 5908 5910 5910 5912 5912 5912 5911 5916 5920 5924 5927 5929 5931 5932 5933 5935 5936 5938 5939 5940 5940 5940 5939 5941 5941
5929 5921 5934 5939 5933 5932 5927 5925 5921 5918 5916 5913 5913 5912 5912 5911 5911 5910 5908 5909 5909 5908 5911 5910 5911 5913 5913 5914 5913 5914 5915 5915 5919 5924 5927 5929 5932 5932 5933 5936 5937 5939 5940 5941 5941 5942 5941 5942 5942
5936 5941 5940 5940 5936 5934 5929 5927 5924 5923 5920 5917 5916 5915 5914 5914 5912 5911 5910 5910 5910 5910 5909 5910 5911 5913 5916 5915 5914 5917 5917 5918 5920 5924 5926 5928 5931 5933 5934 5936 5938 5939 5940 5941 5941 5943 5942 5943 5943
5940 5945 5941 5939 5939 5936 5933 5927 5924 5925 5923 5922 5921 5918 5918 5916 5914 5913 5912 5913 5912 5911 5910 5911 5913 5914 5916 5916 5916 5917 5919 5920 5921 5924 5926 5929 5930 5933 5935 5936 5937 5939 5940 5940 5941 5942 5943 5944 5944
5945 5945 5943 5939 5939 5938 5934 5930 5928 5928 5927 5924 5923 5923 5920 5918 5917 5916 5915 5914 5913 5912 5911 5911 5912 5915 5917 5918 5918 5917 5919 5921 5924 5924 5927 5928 5930 5931 5933 5935 5936 5939 5939 5940 5941 5941 5941 5942 5944
5945 5943 5943 5941 5941 5940 5937 5934 5930 5929 5930 5927 5925 5925 5924 5923 5921 5919 5918 5916 5915 5914 5913 5913 5914 5916 5916 5917 5919 5919 5920 5922 5924 5924 5927 5928 5930 5931 5932 5933 5935 5937 5938 5939 5940 5940 5941 5941 5942
5949 5944 5946 5942 5942 5941 5940 5935 5936 5935 5931 5929 5928 5927 5927 5925 5924 5923 5921 5921 5917 5916 5916 5916 5915 5914 5913 5917 5917 5920 5923 5924 5923 5924 5926 5928 5929 5929 5931 5933 5935 5935 5937 5937 5937 5938 5939 5939 5938
5943 5944 5946 5944 5943 5943 5940 5937 5936 5935 5934 5932 5930 5929 5928 5929 5926 5925 5924 5922 5921 5919 5919 5918 5917 5914 5917 5920 5921 5922 5924 5926 5925 5926 5927 5928 5929 5929 5930 5933 5933 5934 5934 5935 5935 5935 5935 5936 5936
5942 5944 5948 5946 5944 5946 5938 5938 5938 5937 5937 5934 5933 5931 5930 5928 5926 5926 5926 5924 5923 5921 5922 5922 5923 5920 5920 5921 5923 5924 5925 5926 5926 5927 5928 5929 5930 5930 5932 5933 5932 5933 5933 5932 5930 5930 5931 5931 5932
5942 5948 5952 5950 5948 5947 5941 5939 5940 5941 5939 5936 5935 5934 5932 5931 5931 5930 5929 5928 5928 5927 5926 5926 5927 5927 5925 5925 5927 5928 5928 5927 5927 5928 5928 5930 5931 5932 5932 5932 5932 5932 5931 5930 5927 5927 5927 5926 5926
5949 5952 5954 5952 5952 5950 5946 5943 5942 5942 5941 5938 5937 5936 5935 5934 5933 5933 5933 5933 5932 5931 5931 5931 5931 5931 5931 5931 5932 5931 5930 5931 5931 5931 5932 5932 5933 5932 5932 5932 5931 5930 5928 5928 5926 5926 5925 5923 5923
5958 5957 5956 5954 5953 5951 5947 5945 5944 5944 5943 5940 5939 5938 5938 5937 5936 5935 5935 5935 5935 5935 5935 5934 5934 5935 5935 5934 5934 5933 5934 5934 5933 5933 5934 5935 5935 5933 5932 5932 5932 5930 5926 5925 5924 5922 5922 5922 5921
5952 5959 5959 5956 5952 5954 5949 5947 5948 5944 5943 5943 5942 5940 5940 5939 5939 5938 5937 5937 5937 5936 5936 5936 5936 5936 5936 5936 5936 5936 5934 5932 5931 5932 5933 5927 5930 5931 5931 5930 5929 5929 5927 5926 5922 5920 5919 5918 5918
5950 5955 5958 5956 5953 5954 5955 5951 5947 5947 5943 5944 5945 5943 5941 5940 5940 5940 5939 5939 5938 5938 5938 5937 5937 5937 5937 5937 5936 5935 5933 5931 5933 5936 5936 5909 5935 5926 5926 5928 5927 5926 5925 5925 5918 5909 5913 5915 5913
5949 5954 5958 5956 5953 5953 5958 5956 5948 5946 5948 5943 5942 5944 5943 5942 5941 5940 5940 5940 5939 5939 5939 5939 5938 5938 5937 5937 5936 5936 5933 5932 5927 5929 5938 5932 5887 5928 5913 5925 5927 5922 5922 5920 5914 5905 5910 5912 5912
5950 5952 5954 5955 5954 5954 5954 5957 5949 5947 5947 5945 5942 5940 5942 5943 5942 5941 5940 5939 5939 5939 5938 5938 5938 5938 5937 5936 5936 5935 5932 5930 5929 5931 5933 5926 5927 5924 5924 5924 5923 5920 5919 5916 5914 5910 5910 5908 5908
5948 5949 5949 5950 5952 5953 5954 5956 5949 5947 5945 5946 5943 5940 5938 5939 5941 5940 5939 5938 5938 5937 5938 5938 5937 5936 5936 5935 5935 5934 5932 5928 5925 5928 5928 5926 5922 5920 5920 5919 5918 5917 5914 5912 5910 5908 5906 5904 5904
5943 5943 5944 5945 5949 5951 5952 5956 5951 5946 5944 5943 5941 5942 5940 5936 5937 5939 5937 5936 5935 5935 5934 5934 5933 5933 5933 5932 5932 5931 5929 5926 5924 5922 5921 5921 5921 5922 5919 5917 5913 5910 5907 5905 5904 5902 5900 5899 5896
5938 5941 5944 5946 5948 5949 5952 5954 5949 5946 5945 5945 5943 5941 5938 5938 5934 5933 5935 5932 5930 5930 5929 5929 5928 5927 5927 5926 5925 5925 5925 5924 5922 5920 5918 5916 5914 5910 5908 5906 5904 5902 5899 5897 5896 5893 5891 5888 5886
5936 5938 5944 5948 5951 5951 5949 5951 5952 5944 5942 5944 5946 5943 5937 5936 5930 5929 5929 5930 5927 5926 5924 5924 5923 5923 5922 5923 5922 5921 5920 5919 5917 5917 5914 5912 5910 5906 5904 5901 5899 5896 5894 5891 5888 5885 5882 5880 5878
5933 5934 5940 5944 5946 5948 5946 5945 5942 5943 5941 5939 5939 5941 5939 5930 5930 5924 5922 5926 5927 5924 5922 5920 5919 5918 5917 5916 5915 5915 5915 5914 5912 5911 5910 5908 5905 5902 5899 5897 5893 5889 5885 5882 5879 5877 5873 5870 5866
5929 5934 5936 5938 5942 5946 5947 5941 5939 5935 5935 5934 5935 5935 5936 5932 5925 5926 5921 5916 5921 5922 5919 5915 5914 5911 5910 5909 5909 5907 5906 5904 5902 5901 5900 5898 5895 5893 5890 5887 5883 5879 5875 5871 5867 5864 5862 5858 5856
5925 5927 5931 5938 5941 5943 5943 5935 5934 5931 5930 5933 5931 5931 5931 5931 5927 5924 5921 5915 5913 5911 5909 5909 5902 5897 5903 5905 5907 5906 5898 5894 5894 5893 5891 5889 5887 5882 5879 5875 5871 5867 5863 5859 5855 5851 5847 5842 5840
5922 5924 5926 5931 5934 5935 5935 5929 5924 5929 5928 5929 5928 5926 5929 5928 5927 5927 5924 5909 5891 5864 5892 5898 5880 5878 5901 5889 5881 5891 5872 5881 5886 5886 5882 5880 5877 5872 5868 5865 5860 5855 5850 5845 5840 5835 5831 5827 5822